This is the latest recevied weather packets stored in our database for station/object SQ5DCP-1. If no packets are shown the sender has not sent any weather packets the latest 10 day(s).
| Time | Temp. | Humidity | Pressure | Rain* | Wind** | Luminosity | Snow |
|---|---|---|---|---|---|---|---|
| 1777643716 | 19.44° C | 37% | 1024.8 hPa | 0 mm | - | - | - |
| 1777643434 | 20° C | 37% | 1024.7 hPa | 0 mm | - | - | - |
| 1777643132 | 20° C | 37% | 1024.7 hPa | 0 mm | - | - | - |
| 1777642831 | 19.44° C | 37% | 1024.8 hPa | 0 mm | - | - | - |
| 1777642528 | 19.44° C | 38% | 1024.7 hPa | 0 mm | - | - | - |
| 1777642227 | 19.44° C | 38% | 1024.7 hPa | 0 mm | - | - | - |
| 1777641924 | 19.44° C | 38% | 1024.8 hPa | 0 mm | - | - | - |
| 1777641622 | 19.44° C | 38% | 1024.8 hPa | 0 mm | - | - | - |
| 1777641320 | 18.89° C | 38% | 1024.8 hPa | 0 mm | - | - | - |
| 1777641017 | 18.89° C | 38% | 1024.9 hPa | 0 mm | - | - | - |
| 1777640736 | 18.89° C | 38% | 1025 hPa | 0 mm | - | - | - |
| 1777640433 | 18.89° C | 38% | 1025 hPa | 0 mm | - | - | - |
| 1777640131 | 18.89° C | 37% | 1025.1 hPa | 0 mm | - | - | - |
| 1777639830 | 18.89° C | 38% | 1025.1 hPa | 0 mm | - | - | - |
| 1777639527 | 18.89° C | 38% | 1025.2 hPa | 0 mm | - | - | - |
| 1777639225 | 18.89° C | 38% | 1025.2 hPa | 0 mm | - | - | - |
| 1777638923 | 18.89° C | 37% | 1025.3 hPa | 0 mm | - | - | - |
| 1777638621 | 18.89° C | 37% | 1025.4 hPa | 0 mm | - | - | - |
| 1777638319 | 18.89° C | 38% | 1025.3 hPa | 0 mm | - | - | - |
| 1777638016 | 18.33° C | 39% | 1025.3 hPa | 0 mm | - | - | - |
| 1777637734 | 18.33° C | 39% | 1025.3 hPa | 0 mm | - | - | - |
| 1777637432 | 17.78° C | 40% | 1025.5 hPa | 0 mm | - | - | - |
| 1777637130 | 17.78° C | 40% | 1025.5 hPa | 0 mm | - | - | - |
| 1777636829 | 17.78° C | 39% | 1025.6 hPa | 0 mm | - | - | - |
| 1777636525 | 17.78° C | 39% | 1025.7 hPa | 0 mm | - | - | - |
* Rain latest hour (hover to see other rain measurements)
** Current wind speed in m/s (hover to see current wind gust speed)